Location: Bowman Observatory
(41.0326°N, 73.6210°W)
Time: 03:26:32
(UTC-04:00)

Cosmos 2297 - Visible Passes

Search period start: 20 September 2017 00:00
Search period end: 30 September 2017 00:00
Orbit: 836 x 859 km, 71.0° (Epoch: 19 September)

Date Brightness Start Highest point End Pass type
(mag) Time Alt. Az. Time Alt. Az. Time Alt. Az.
20 Sep 7.2 19:40:18 10° W 19:41:40 11° W 19:43:01 10° WSW visible
21 Sep 7.2 19:26:45 10° W 19:28:20 11° W 19:29:56 10° WSW visible
22 Sep 7.3 19:13:12 10° WNW 19:15:00 11° W 19:16:47 10° WSW visible
25 Sep 6.2 06:08:37 10° SSE 06:13:09 26° ESE 06:17:43 10° NE visible
26 Sep 6.2 05:55:19 10° SSE 05:59:48 25° ESE 06:04:20 10° NE visible
27 Sep 6.1 05:42:01 10° SSE 05:46:28 25° ESE 05:50:57 10° NE visible
28 Sep 6.1 05:28:44 10° SSE 05:33:08 24° ESE 05:37:34 10° NE visible
29 Sep 6.1 05:15:27 10° SSE 05:19:48 23° E 05:24:10 10° NE visible
